Location: Moscow
(55.7500°N, 37.5830°E)
Time: 03:52:20
(UTC+03:00)

Kosmos-337 - Pass Details

Date: 11 July 2022
Orbit: 1467 x 1552 km, 74.0° (Epoch: 13 August)

Event Time Altitude Azimuth Distance (km) Brightness Sun altitude
Rises 00:03:15 0° 331° (NNW) 4,737 ? -11.8°
Reaches altitude 10° 00:06:14 10° 331° (NNW) 3,750 ? -11.9°
Maximum altitude 00:15:28 86° 245° (WSW) 1,554 ? -12.0°
Enters shadow 00:23:59 12° 158° (SSE) 3,511 ? -12.1°
